RH
101 101 98 96 94 93 92 93 93 90 87 81 73 66 64 62 58 52 48 46 42 36 31 30 32 36 37 36 36 36 36 34 34 35 37 41 45 46 48 50 49 50 53 56 57 52 42 33 25 19 14 10 8 6 6 8 9 11 13 13 14 16 17 18 22 25 27 31 33 37 42 39 49 80 95 90 95 101 97 93 86 80 78 79 83
96 95 94 93 91 88 85 83 82 81 80 78 73 67 63 63 61 57 56 54 50 45 41 36 32 32 34 35 35 34 33 33 33 35 41 47 50 50 52 54 56 58 63 65 64 62 56 48 41 34 27 20 13 9 7 6 7 8 11 14 14 15 17 17 18 21 25 30 31 34 43 42 43 71 97 99 97 98 98 100 98 91 84 83 88
90 89 91 92 90 87 82 79 75 71 69 67 65 62 61 62 61 58 59 61 61 57 52 49 43 37 34 33 34 33 31 30 31 35 46 53 55 52 51 53 58 64 72 73 70 68 66 62 59 57 52 42 28 18 12 8 7 8 8 11 14 16 18 20 19 19 21 27 32 32 38 44 46 64 91 100 99 100 99 98 101 101 97 93 95
88 91 93 92 91 89 86 81 75 69 66 64 61 58 55 57 61 62 62 62 66 66 59 56 56 52 46 39 35 35 33 32 33 39 50 54 54 53 51 53 61 69 75 76 73 72 72 69 70 75 78 73 58 40 26 16 10 8 8 9 12 14 18 23 26 24 21 24 31 34 35 40 45 59 86 100 100 99 100 99 100 101 101 100 99
94 96 97 96 94 93 89 84 77 74 73 71 69 66 61 56 56 64 71 68 67 69 65 61 63 63 60 53 45 40 38 38 40 47 52 52 53 55 54 58 69 75 77 77 75 74 74 73 75 82 89 91 85 70 52 35 21 13 10 9 10 12 15 21 29 34 33 30 32 36 37 39 42 50 70 89 97 100 100 99 100 100 100 101 100
101 101 101 101 99 96 95 90 84 83 82 79 78 78 76 69 59 63 79 79 72 71 69 64 63 62 61 59 55 49 45 44 46 53 57 55 56 58 60 68 76 77 75 76 77 77 78 78 80 85 90 91 92 91 81 66 48 29 17 12 11 11 13 16 23 33 44 46 44 45 44 42 42 46 55 69 87 100 100 99 100 100 100 101 100
103 103 103 103 100 100 102 96 88 86 85 87 93 94 93 89 74 69 82 89 80 74 72 66 63 63 61 62 61 58 56 52 51 57 60 57 57 60 67 76 80 78 77 78 80 83 83 82 82 85 89 90 94 99 97 91 77 54 35 24 16 13 13 13 16 23 38 52 59 60 61 56 48 45 48 55 72 92 100 99 100 101 100 100 101
102 102 101 100 99 102 104 98 92 90 89 93 100 101 102 103 93 84 88 95 89 81 77 72 69 70 70 69 67 65 63 59 56 58 58 54 57 65 74 81 82 80 80 82 87 91 89 85 83 85 88 93 99 103 103 101 93 78 63 49 33 20 15 13 14 16 23 40 58 68 74 76 67 53 48 49 55 75 95 101 99 100 100 99 99
97 97 97 97 97 101 102 100 98 96 96 99 100 99 100 103 103 100 99 102 101 96 92 87 82 80 78 74 72 71 70 66 60 58 56 56 62 72 78 82 83 83 84 87 91 96 96 90 85 86 90 95 100 103 105 103 98 91 87 78 58 35 21 15 14 15 15 22 39 57 73 87 90 75 60 54 49 56 82 102 101 99 101 99 98
93 91 94 97 98 99 101 100 100 100 100 100 100 100 100 100 102 104 103 102 102 102 102 100 97 92 86 81 77 75 73 67 61 59 61 66 72 78 83 85 86 87 90 94 97 102 103 98 90 88 90 92 94 97 100 102 100 97 98 97 82 57 36 24 16 15 16 16 21 36 55 76 95 96 81 70 62 58 72 96 103 100 101 101 100
92 90 95 98 98 99 100 100 100 100 100 101 101 101 99 99 100 100 100 100 100 100 101 101 103 102 95 88 83 80 77 73 70 69 71 75 79 83 87 87 87 90 95 101 104 106 106 101 95 91 91 91 93 96 101 103 103 103 102 101 94 78 58 42 29 20 17 17 16 20 32 48 74 96 99 90 85 79 79 91 101 101 100 101 101
80 85 93 98 99 101 102 103 102 101 100 100 103 104 103 102 101 100 100 100 99 100 100 100 104 104 97 92 89 87 85 82 79 76 74 76 80 85 89 88 87 90 95 102 106 107 106 102 96 94 95 97 98 99 103 105 105 106 105 103 99 92 80 66 53 40 28 22 19 17 19 26 41 68 92 100 100 96 92 94 100 102 101 100 100
61 66 73 80 88 96 103 107 108 106 104 101 100 101 101 101 101 100 100 100 100 101 101 102 104 103 99 97 96 94 91 88 85 82 81 84 88 92 94 92 91 91 94 100 105 106 106 101 96 96 100 103 102 98 99 103 106 108 108 105 99 93 88 81 73 64 51 38 29 21 18 19 22 34 58 82 98 104 103 100 100 102 103 102 100
56 57 59 62 67 75 84 91 95 97 101 103 103 103 102 101 102 100 100 100 100 100 100 102 103 102 100 100 101 100 99 97 95 93 93 95 97 99 98 95 92 92 94 100 104 107 105 98 95 97 102 105 103 96 95 99 103 105 105 102 97 91 87 82 78 75 68 58 47 36 26 20 19 20 28 46 70 91 103 105 102 101 102 104 102
68 68 67 66 66 67 69 71 73 75 78 83 88 92 94 96 99 100 100 101 102 102 102 102 101 100 100 100 100 102 103 102 101 97 97 98 99 100 101 101 98 96 98 102 104 106 103 95 93 97 103 106 103 96 92 92 95 99 100 98 96 93 88 84 79 76 73 68 62 54 43 31 22 20 21 24 35 54 77 94 103 103 102 102 102
81 83 85 87 89 89 89 86 85 84 82 81 79 78 77 78 79 80 82 84 86 89 92 96 98 98 100 100 100 100 100 101 100 99 101 105 105 102 101 101 101 100 101 103 104 105 102 94 92 97 101 105 104 98 93 92 91 94 97 97 95 92 91 90 86 81 77 72 66 61 56 47 35 26 23 23 23 28 40 59 79 94 102 105 103
89 94 99 102 103 101 100 98 97 97 95 92 88 85 82 80 79 76 73 70 67 65 64 66 70 75 82 88 92 96 98 99 98 99 101 104 105 106 105 105 105 104 104 103 102 104 104 99 98 100 101 104 106 104 100 97 94 93 97 99 96 93 95 97 94 90 84 76 68 63 59 55 49 40 32 27 25 24 25 30 43 60 78 93 100
91 95 99 101 101 97 93 91 91 92 91 88 87 86 85 87 88 89 87 84 80 73 63 54 49 48 52 57 62 69 76 83 89 94 98 101 102 102 103 104 105 105 104 104 103 103 103 102 103 103 104 105 106 105 103 99 96 97 99 99 97 97 100 102 102 99 93 82 72 65 60 55 52 49 44 37 30 27 25 24 26 33 44 58 74
87 90 92 94 94 92 90 90 90 91 91 89 87 86 86 87 90 90 90 91 94 92 85 77 68 56 47 42 43 45 47 51 56 62 70 79 87 93 99 102 105 105 104 104 105 104 102 102 103 103 104 105 104 103 101 97 96 101 102 99 99 102 104 105 105 103 96 86 76 69 63 59 53 47 46 45 41 35 32 28 27 27 29 34 44
76 78 81 84 87 89 88 90 92 94 93 91 89 87 87 90 93 91 85 86 95 100 96 92 89 81 66 53 46 45 44 43 44 45 46 49 55 63 74 85 93 100 105 107 108 109 107 105 104 102 101 101 102 100 98 95 97 102 105 103 102 104 105 104 104 101 95 89 83 76 72 69 63 51 44 43 44 43 40 36 33 31 29 29 32
63 66 70 73 77 82 85 87 89 91 94 95 93 88 88 91 94 92 85 84 95 104 99 91 90 92 88 75 60 53 51 50 51 53 54 53 52 51 52 58 64 71 79 87 93 99 102 104 105 106 105 104 104 102 98 97 98 101 103 105 104 102 102 102 100 97 94 92 87 81 79 79 77 68 55 46 45 48 50 49 45 40 37 34 33
54 56 58 60 65 76 85 90 93 96 98 98 94 89 87 88 88 87 84 86 95 103 100 90 83 87 93 90 77 67 66 67 67 67 65 62 60 58 55 56 58 59 61 64 67 70 75 80 85 90 95 100 103 105 105 103 102 101 102 105 104 101 100 101 98 93 91 91 89 84 82 81 82 81 74 63 58 60 68 74 72 62 53 46 38
58 57 55 54 57 68 80 88 91 93 92 88 86 85 83 81 78 77 80 88 96 102 103 98 90 85 87 88 82 73 74 79 82 81 76 69 62 59 57 57 61 65 67 67 65 63 62 62 63 65 70 78 85 91 98 103 103 102 103 103 103 102 101 99 97 92 89 90 90 89 86 83 82 84 86 84 83 83 85 92 94 86 77 69 60
64 63 62 61 61 69 81 86 85 83 81 76 74 75 77 76 73 72 75 82 87 92 99 103 101 92 83 79 76 68 60 61 62 61 60 57 54 54 57 62 69 76 79 79 78 76 72 67 62 58 58 60 64 69 77 86 94 101 105 104 102 103 103 100 97 96 96 97 98 98 96 91 86 87 90 94 99 99 95 93 96 96 94 93 89
66 66 65 67 72 83 94 97 91 87 86 85 81 80 80 79 77 77 78 78 75 76 79 85 95 99 87 70 60 52 44 40 39 38 40 46 54 63 73 83 91 94 93 87 80 79 79 77 74 70 63 56 54 56 62 70 78 86 95 103 106 103 98 95 94 93 94 98 101 103 103 99 93 90 91 93 97 99 97 91 89 94 99 101 100
62 64 63 63 67 77 88 95 95 92 90 89 85 81 78 76 72 71 72 72 71 71 70 70 82 97 94 73 52 43 41 43 48 54 63 73 83 91 97 101 102 103 103 97 87 83 84 87 91 92 81 64 52 52 62 74 81 81 80 87 98 101 95 92 92 90 91 95 99 102 104 104 100 95 93 92 93 96 97 94 89 90 96 100 101
54 56 59 62 68 75 80 85 89 90 90 88 81 74 69 65 60 57 54 55 58 64 72 75 77 84 92 88 73 61 61 70 81 89 95 98 101 102 102 101 99 100 102 101 97 92 87 85 90 97 97 83 62 54 66 84 95 96 88 77 74 76 74 72 72 71 73 78 85 92 97 101 102 100 97 97 98 98 97 96 92 90 90 93 95
46 51 53 56 63 71 76 79 80 78 78 78 76 72 68 63 59 56 51 47 45 47 58 71 74 72 78 87 90 88 88 94 101 102 100 100 102 99 95 94 95 96 97 96 95 90 79 67 64 72 86 94 81 66 75 95 103 103 102 94 79 66 58 54 53 53 52 53 58 68 79 90 99 103 102 100 101 102 101 98 95 94 93 91 90
32 37 43 47 50 54 58 64 68 68 67 65 62 61 62 62 61 59 56 51 45 37 39 50 64 71 72 73 82 93 99 101 99 95 93 97 100 97 92 93 96 98 99 99 98 94 85 72 61 55 61 77 78 68 75 98 106 102 103 105 92 72 60 57 59 61 61 58 54 52 56 67 83 98 105 104 100 101 103 101 98 97 96 94 93
45 35 32 34 38 42 45 50 56 61 64 63 59 58 59 58 57 57 55 52 46 37 32 34 47 66 74 71 71 81 95 101 92 83 84 90 93 96 98 99 99 99 100 99 100 101 98 90 81 73 66 65 65 61 63 79 95 102 107 107 93 72 63 67 74 76 78 78 74 65 56 52 57 73 94 105 104 101 102 103 101 100 99 96 95
80 69 56 43 35 33 35 39 45 52 57 58 59 61 61 58 54 52 51 49 43 36 30 28 35 53 72 76 67 65 82 97 89 78 80 84 86 95 104 103 99 100 101 101 101 101 101 98 94 93 90 82 75 70 64 63 68 76 82 84 80 73 74 82 91 94 96 97 96 90 78 65 54 53 68 90 103 105 103 100 98 99 101 101 100
94 93 89 81 68 54 42 36 34 37 42 47 51 53 54 54 52 49 47 45 39 32 29 29 32 45 66 79 71 58 68 87 89 82 82 83 84 95 106 106 103 101 101 103 101 92 87 87 87 87 93 97 96 92 88 81 76 73 74 75 76 78 81 85 91 96 99 102 103 101 96 88 75 61 57 68 85 99 105 102 98 99 102 102 101
99 100 100 100 98 90 80 67 53 42 35 33 35 37 39 40 39 39 40 38 31 27 28 32 39 53 71 83 75 59 59 75 88 90 85 80 83 95 104 105 104 100 97 101 100 86 71 66 70 78 89 101 105 102 100 98 94 89 88 91 92 93 92 91 93 96 98 99 101 102 102 101 97 87 76 69 71 81 90 95 96 98 102 104 103
88 96 100 103 104 104 102 99 90 79 66 53 42 37 34 32 32 36 42 47 44 36 33 42 60 77 88 89 80 64 52 58 78 92 89 80 83 91 95 97 99 98 96 96 95 90 81 75 78 86 91 96 100 100 100 102 101 96 95 96 98 100 100 99 99 100 100 101 101 101 101 102 103 102 99 93 88 85 84 86 87 88 91 95 98
69 73 80 88 95 99 103 105 103 100 96 88 81 73 67 66 66 63 63 67 62 49 48 67 89 98 96 91 80 65 50 47 65 86 89 80 77 77 73 74 80 88 96 98 94 90 89 87 87 86 77 72 77 83 86 89 92 95 97 98 99 101 101 100 100 100 99 100 100 100 100 101 101 102 102 101 101 100 99 100 97 90 85 83 84
67 66 66 69 75 82 90 98 103 105 102 100 100 98 97 100 100 95 88 80 65 53 63 87 102 102 100 95 80 62 49 44 55 77 86 77 67 60 53 51 55 62 73 85 91 93 92 89 84 79 71 67 71 79 85 88 90 91 92 92 95 99 101 100 101 101 100 100 100 100 100 99 99 100 100 99 100 101 104 108 107 98 89 84 79
72 71 71 70 69 70 72 76 86 96 101 102 102 101 102 103 102 102 101 87 66 62 79 96 98 97 102 102 87 64 48 41 48 68 81 72 58 50 45 42 43 45 47 55 67 78 87 90 87 80 73 72 77 86 96 102 101 100 99 98 97 99 101 101 101 100 99 100 100 100 100 98 96 98 99 100 100 101 102 103 102 98 92 87 81
77 75 76 76 75 74 72 67 67 71 80 91 97 97 99 101 100 101 103 86 65 69 89 98 97 98 103 103 88 61 42 38 45 61 73 68 55 46 41 39 42 44 41 41 46 53 63 78 89 90 84 79 78 82 91 98 99 98 99 100 100 99 99 100 100 100 100 102 103 102 101 100 100 100 101 101 101 101 100 99 98 99 99 98 94
80 80 79 79 79 80 79 75 71 65 64 74 86 90 96 102 102 105 106 88 67 74 92 96 96 102 103 94 77 54 39 38 45 56 67 67 55 47 44 43 45 46 43 41 43 43 46 55 69 82 89 90 86 82 82 86 89 91 92 92 95 96 97 97 98 97 96 99 101 100 100 100 100 101 101 102 102 102 101 101 101 100 101 102 100
68 82 86 85 84 85 85 82 80 72 64 66 74 82 94 102 101 105 108 91 72 80 98 98 97 105 104 87 64 46 38 39 42 49 61 64 57 52 50 47 47 48 47 44 42 41 41 46 53 63 75 87 94 95 90 85 83 84 84 85 87 90 92 95 97 99 99 99 100 100 100 100 100 100 100 101 100 100 100 100 100 100 100 100 99
37 62 81 88 89 89 89 88 86 81 73 69 71 77 91 99 99 103 106 89 72 83 101 101 97 105 106 91 66 44 37 41 42 43 49 54 53 53 52 48 48 49 47 45 43 39 38 45 57 67 73 79 88 96 98 96 93 91 89 89 90 90 90 91 94 97 99 100 102 102 102 101 101 102 103 102 101 100 101 100 100 100 100 100 100
10 26 50 73 88 94 93 92 92 90 83 76 72 76 88 97 98 102 102 85 73 86 101 101 99 103 103 98 83 61 45 43 43 42 44 46 48 49 48 47 48 47 45 43 41 36 38 53 75 90 94 92 92 95 97 98 98 98 97 97 98 98 97 97 96 97 98 99 101 103 102 102 101 101 101 101 100 99 100 100 100 100 100 99 99
5 7 16 36 63 86 96 98 97 95 92 85 76 76 88 96 98 102 100 85 77 88 98 97 98 102 100 99 97 85 68 57 50 44 42 43 44 45 46 46 45 45 44 40 36 38 53 76 94 102 103 101 101 102 102 101 101 100 100 100 101 102 102 102 101 100 99 98 99 100 100 100 100 100 100 100 100 100 100 100 100 100 100 100 101
5 6 6 10 26 53 79 96 100 97 95 91 82 79 88 98 99 101 101 90 83 90 96 94 95 100 100 99 98 93 84 76 66 55 46 41 40 40 41 42 42 41 41 41 46 61 82 98 102 101 101 100 101 102 103 103 102 102 101 101 101 101 101 100 99 100 101 100 100 101 100 100 100 100 99 100 99 99 100 99 99 99 99 99 99
4 6 7 6 8 20 45 75 95 100 97 94 87 80 85 96 101 101 100 96 93 95 95 92 93 98 100 101 100 95 89 85 80 73 64 54 48 43 41 41 44 45 48 57 71 87 98 101 99 99 100 100 99 100 100 101 101 100 98 98 98 99 99 99 99 99 100 99 99 99 99 100 100 100 100 101 101 101 101 101 101 102 102 101 102
5 5 6 7 8 9 18 42 73 94 98 96 92 86 83 91 101 103 98 96 100 101 96 91 92 96 98 99 100 100 97 93 91 90 86 79 73 69 66 64 65 69 75 84 93 98 100 100 101 101 101 100 100 100 99 101 102 102 100 99 99 100 100 101 101 101 101 101 102 102 101 101 100 98 97 96 94 93 92 91 90 89 88 87 85
5 5 5 5 7 9 9 17 41 70 90 96 97 93 88 88 96 102 99 96 99 103 101 95 93 95 98 100 100 99 100 101 99 98 98 96 95 95 94 92 92 94 97 99 100 100 100 100 100 100 101 102 102 101 100 103 106 107 106 104 103 101 100 98 97 96 94 92 90 88 84 79 75 71 67 64 61 59 56 53 51 49 47 44 41
4 5 6 6 5 8 9 9 17 41 71 92 101 101 96 92 95 99 99 97 99 102 103 101 98 96 97 99 100 99 99 100 100 100 100 100 100 100 100 100 100 100 100 99 99 100 100 101 101 102 104 105 105 102 100 101 101 99 93 88 83 79 77 75 73 71 67 63 60 58 54 49 45 42 39 36 34 32 29 27 25 23 21 19 17
5 4 5 6 6 6 9 10 10 20 45 76 98 105 102 96 96 100 100 97 98 100 102 102 102 101 99 99 99 100 100 100 100 99 100 100 100 100 100 100 100 100 100 101 102 102 102 100 97 94 91 88 84 80 77 76 74 71 67 63 61 60 59 58 55 52 49 45 42 39 36 34 31 29 26 24 22 20 19 17 16 15 14 14 14
5 5 4 5 6 5 6 9 10 10 18 40 70 95 104 100 97 99 101 99 97 98 101 102 103 104 103 102 100 99 100 100 100 100 100 99 100 100 100 99 99 99 96 92 90 89 85 80 75 71 69 67 64 63 63 64 64 64 65 64 64 62 58 53 48 43 40 37 35 32 30 28 25 23 22 21 19 18 17 15 14 14 14 14 14
5 5 5 4 6 6 6 7 9 10 10 14 32 61 89 102 101 98 98 99 97 97 98 100 102 103 104 105 104 103 102 100 99 100 100 100 100 101 101 100 97 91 81 73 69 70 71 69 68 69 71 72 73 74 74 74 73 72 70 67 63 58 52 46 42 39 37 35 32 30 28 26 25 24 23 21 20 18 17 16 15 15 15 15 16
Wind_Speed
29 29 30 30 30 30 30 30 29 28 28 27 27 27 27 29 30 30 29 27 26 26 29 31 32 32 33 32 32 32 31 31 30 29 28 28 28 28 29 29 29 30 32 34 36 38 41 44 48 52 58 65 73 83 93 101 106 110 113 115 116 117 117 116 113 110 108 107 106 103 101 98 95 92 89 87 84 82 80 80 82 84 83 84 85
29 30 31 31 31 31 30 30 29 29 29 29 28 27 26 27 29 30 30 30 29 28 28 30 32 33 34 34 33 33 32 30 29 28 27 28 29 29 30 29 29 29 30 32 35 37 38 38 40 42 47 53 59 67 77 87 95 101 106 109 112 114 116 117 116 113 110 108 108 106 103 101 98 95 92 88 85 84 81 80 81 83 82 81 83
30 31 31 31 31 30 30 30 29 29 29 29 29 28 27 27 27 28 28 30 31 31 30 29 31 33 34 34 34 33 31 29 27 26 27 30 31 31 30 29 28 28 29 31 34 36 37 36 36 37 39 44 49 55 62 71 81 89 96 102 106 110 113 115 116 115 112 110 109 108 106 104 101 98 97 93 89 86 84 82 83 84 84 82 81
30 30 30 30 30 30 30 30 30 29 28 28 28 28 28 27 26 25 26 27 29 31 31 29 29 31 33 34 34 33 31 29 27 27 28 31 31 31 30 29 28 29 30 31 33 35 36 36 36 36 37 39 42 46 52 58 66 75 83 91 98 104 108 112 114 114 114 113 111 109 108 107 104 102 102 100 95 90 88 86 85 85 85 84 81
29 29 29 29 29 29 30 30 30 28 26 24 24 24 25 25 25 23 23 25 27 29 30 30 29 29 31 32 33 33 33 31 28 27 30 32 32 32 31 29 29 31 31 32 33 35 37 37 37 37 37 38 39 41 44 48 55 62 70 78 86 95 102 107 111 113 114 114 113 111 110 109 108 106 105 104 101 96 91 90 89 87 86 86 84
29 29 29 29 28 28 29 30 31 28 25 23 20 19 19 20 21 21 20 21 24 26 28 29 28 29 29 30 30 31 31 30 28 28 31 33 32 32 30 29 30 32 32 31 32 34 36 37 38 38 39 39 38 38 39 42 46 52 59 66 74 83 92 100 106 110 113 114 113 113 111 111 110 109 107 107 106 102 95 91 91 90 88 87 87
28 28 28 28 27 27 28 29 29 27 25 22 17 14 13 13 15 16 16 17 19 22 25 27 27 27 28 27 27 28 28 28 27 30 33 33 32 31 30 30 32 33 32 31 31 32 34 37 39 39 39 39 38 37 38 39 41 44 49 55 63 71 81 91 98 105 110 113 114 113 112 112 112 111 110 109 109 108 102 94 90 89 88 88 88
27 27 27 27 26 26 26 27 27 26 24 22 18 12 8 6 7 10 12 12 14 18 22 23 24 25 26 26 25 25 26 26 28 31 34 32 30 29 30 31 32 32 31 31 30 31 33 36 38 39 39 39 38 37 37 38 39 40 42 47 54 62 70 80 89 97 104 109 113 114 113 112 112 112 112 112 111 111 108 100 92 87 86 86 87
28 27 26 26 26 25 25 25 25 25 24 22 19 15 11 6 1 4 7 8 10 14 18 19 21 22 24 24 23 23 24 26 29 31 31 29 28 28 29 30 31 31 31 30 30 30 31 34 36 38 38 38 38 38 38 38 38 38 39 42 47 54 61 69 78 86 95 102 108 113 114 113 112 112 112 112 111 110 111 109 102 94 89 86 85
28 27 26 26 25 25 25 24 23 23 23 22 20 18 14 10 6 3 3 4 6 10 14 17 18 20 21 21 21 22 23 26 28 29 28 27 27 28 27 28 29 29 29 29 28 29 30 32 34 36 37 38 38 38 38 38 37 37 38 39 42 46 52 59 67 75 83 92 99 107 113 114 112 111 111 111 110 110 112 113 110 105 100 96 91
26 26 26 26 25 24 24 24 23 22 21 21 21 19 17 14 10 7 4 3 4 8 12 14 16 17 17 18 19 20 22 24 25 26 26 27 28 27 27 27 28 28 28 28 28 28 29 31 33 35 36 36 36 37 37 36 36 37 38 38 39 40 43 48 55 63 71 80 88 97 105 111 113 112 111 111 110 110 112 114 115 112 107 104 101
26 25 25 25 25 24 24 24 23 22 20 19 19 18 17 15 12 10 7 5 5 7 9 11 12 13 14 15 17 18 20 22 24 26 27 27 27 27 27 27 28 28 28 28 28 28 29 31 32 33 33 33 33 34 34 34 34 35 36 36 37 36 37 39 44 50 58 67 75 84 94 102 108 111 111 111 111 111 111 113 116 116 112 107 104
27 26 25 25 25 24 24 23 23 23 21 19 18 17 15 14 12 10 7 5 3 3 4 6 8 10 11 13 15 17 19 21 23 25 26 26 27 27 27 26 26 26 26 26 26 27 29 31 31 31 30 30 30 31 32 32 32 33 34 34 34 34 34 35 37 41 47 54 62 70 80 90 98 105 109 111 112 112 113 112 113 115 115 112 108
29 28 27 26 26 25 24 23 23 23 23 22 20 19 16 15 13 10 8 5 3 1 2 4 6 8 10 11 13 15 17 19 21 23 24 25 25 25 25 25 25 25 25 24 25 26 28 30 30 29 28 29 29 30 30 30 30 31 32 32 33 33 34 35 36 38 41 45 51 57 66 76 86 93 101 107 111 113 114 114 113 112 113 114 113
31 31 30 29 29 28 27 27 26 26 26 25 24 22 20 18 16 14 11 9 6 4 4 4 5 7 9 11 12 14 16 17 19 21 22 23 24 24 24 24 24 24 23 23 24 26 28 29 29 29 29 29 29 30 29 29 29 30 30 31 31 32 33 34 36 38 40 42 45 49 55 63 73 82 89 97 104 109 113 114 114 114 112 112 113
31 31 31 31 30 30 30 29 29 29 28 27 26 25 24 22 21 19 16 14 12 9 7 6 6 7 8 10 12 13 14 16 17 19 20 21 22 22 22 22 22 22 22 23 24 25 27 28 28 29 29 29 29 29 29 29 29 29 29 30 30 31 32 33 35 36 39 41 44 46 50 55 62 70 78 85 93 100 106 111 113 115 115 114 113
31 30 30 30 30 30 30 29 29 28 28 27 26 26 25 24 22 21 19 18 16 14 12 10 8 7 7 8 10 11 13 14 15 17 18 19 19 20 21 21 21 22 22 22 23 24 25 27 28 29 30 30 30 30 30 30 30 30 30 30 30 30 30 31 32 34 36 39 42 44 47 51 55 61 67 74 81 88 95 101 106 110 113 114 114
30 30 30 30 29 29 29 28 28 28 27 26 26 25 25 24 23 22 20 19 18 16 14 13 11 10 8 8 8 8 9 11 12 14 15 16 17 18 19 20 21 22 22 23 23 24 25 26 28 29 30 30 31 31 32 32 32 31 31 31 30 30 30 30 31 32 33 35 37 39 42 46 51 55 60 65 71 77 83 89 96 101 106 109 111
29 29 29 29 29 28 28 28 28 27 27 26 25 25 25 25 25 23 22 21 20 18 16 14 13 11 10 9 8 7 7 7 7 8 10 11 13 15 16 17 18 20 21 22 23 24 25 26 27 29 29 30 32 33 34 34 33 32 32 32 31 31 31 32 31 31 31 32 33 35 37 40 44 50 55 59 63 67 71 76 82 89 95 100 104
29 28 28 28 28 28 28 28 27 27 26 25 25 25 26 26 26 25 23 23 23 22 19 16 14 12 11 9 8 8 7 7 6 5 5 5 6 8 10 12 13 15 17 18 20 22 24 25 27 28 29 31 32 34 34 35 34 33 33 33 31 31 33 34 32 31 31 30 31 32 33 35 38 43 49 54 58 61 64 67 71 75 81 88 93
28 28 28 28 28 27 27 27 27 26 26 25 25 25 25 25 25 24 24 24 24 23 21 19 16 14 12 11 9 7 7 7 7 6 5 5 4 3 3 4 6 7 9 12 14 17 19 21 23 25 27 29 31 33 35 35 35 34 33 33 31 32 34 35 34 34 32 30 30 30 30 31 33 36 41 47 52 56 57 59 61 64 68 74 79
26 26 26 27 27 26 26 26 26 26 26 25 25 25 24 24 24 24 23 23 23 22 21 20 19 16 13 12 10 8 7 7 7 7 6 5 4 4 3 3 3 3 5 6 8 10 12 14 16 18 20 23 26 29 32 34 35 34 34 33 33 34 35 35 36 35 34 32 31 30 29 29 30 31 33 37 43 50 53 53 53 56 59 63 67
24 24 24 25 24 24 24 24 24 24 24 24 25 25 25 25 25 24 24 24 23 21 20 20 20 18 14 12 11 9 7 7 7 6 6 6 6 5 5 4 5 5 6 7 7 8 9 10 11 13 15 17 19 22 25 30 33 34 34 34 34 35 35 36 37 36 35 33 32 31 29 28 28 29 30 31 34 43 51 53 51 51 53 55 58
23 23 23 23 23 23 23 23 24 24 25 25 25 25 26 26 26 26 26 25 24 22 20 19 19 19 16 12 11 10 9 8 7 6 6 6 6 7 7 8 9 9 10 10 10 10 11 11 12 12 13 14 15 17 20 23 26 30 32 34 35 35 36 36 36 36 34 33 32 32 32 31 29 28 30 31 31 36 45 52 54 52 51 52 53
22 21 21 21 21 21 22 22 23 24 25 26 26 26 26 26 26 26 26 25 25 24 23 21 19 19 18 15 12 10 10 9 8 7 8 8 9 10 10 11 11 11 12 12 12 12 13 13 14 14 14 14 15 17 19 20 22 25 28 30 32 33 34 34 34 34 33 33 32 32 33 33 32 31 30 32 33 34 38 46 53 55 53 51 52
19 19 19 19 19 19 19 19 21 22 23 23 24 24 25 25 26 26 26 25 25 25 25 23 21 19 18 16 13 12 11 10 11 11 11 11 11 11 10 11 11 11 11 12 12 13 14 14 15 15 16 16 16 17 20 21 22 23 25 27 28 30 30 30 30 31 32 32 33 34 34 34 35 34 33 32 33 34 35 38 45 52 55 54 53
18 18 18 17 17 18 17 17 17 18 19 20 20 21 22 23 24 25 26 26 26 25 24 24 23 20 17 15 14 13 13 13 13 12 11 11 10 10 10 10 11 11 11 11 12 13 14 14 15 15 16 16 16 17 20 23 24 25 24 24 24 24 24 25 26 28 30 32 34 35 36 36 36 37 37 35 34 34 36 37 39 44 50 54 56
17 17 17 17 16 16 15 15 15 15 15 16 17 18 20 21 22 23 24 25 25 24 23 22 22 21 18 15 13 12 13 13 13 12 12 12 12 12 12 12 11 11 11 11 11 12 13 13 13 13 13 15 15 16 17 21 24 26 26 24 22 21 21 22 24 25 28 30 32 34 36 37 38 38 38 38 37 36 37 38 39 40 43 47 50
19 18 18 17 16 15 15 15 15 15 15 15 15 15 16 18 20 22 23 24 25 24 23 21 20 20 19 17 14 12 11 12 12 12 12 13 13 13 13 13 12 12 12 11 11 11 12 13 13 12 11 11 12 13 14 17 20 24 25 24 22 21 21 22 22 23 24 26 28 31 34 36 38 39 39 39 39 39 39 39 39 40 42 44 45
21 20 20 19 18 17 17 16 16 17 18 18 18 17 17 17 17 19 21 24 26 26 25 21 19 18 18 18 15 13 11 11 12 12 13 13 13 13 13 13 12 12 13 12 11 10 11 12 13 13 12 10 9 8 8 10 14 18 21 22 21 21 22 22 22 22 22 23 24 26 29 33 36 39 40 40 40 41 42 42 41 41 42 43 44
25 23 22 22 21 21 20 19 19 19 19 20 21 21 22 22 21 19 20 23 27 28 27 23 19 17 17 17 15 13 11 10 11 12 12 12 13 13 13 13 12 12 12 13 12 9 8 9 12 13 12 12 11 9 7 7 9 11 14 17 18 20 21 22 23 23 23 23 23 24 25 27 31 35 38 41 41 42 43 43 43 43 43 43 43
29 27 25 24 23 23 22 22 22 22 22 21 22 23 25 27 28 26 24 24 26 28 28 25 20 17 16 16 15 13 10 10 11 11 11 12 13 13 14 13 12 11 12 12 12 10 8 5 7 9 10 10 10 10 10 10 10 11 12 14 16 17 18 19 20 21 22 23 24 24 23 23 25 27 32 37 40 42 43 43 43 43 43 44 44
29 29 28 27 26 24 24 23 23 24 24 24 24 25 25 27 29 30 30 29 28 28 26 23 20 17 15 15 14 12 9 9 10 11 11 12 13 13 13 13 12 12 13 13 12 10 9 7 6 6 6 6 6 7 8 9 10 11 12 14 15 16 18 18 19 20 21 21 22 22 22 22 22 23 25 29 33 37 39 41 42 42 42 43 45
28 28 28 28 27 26 25 24 24 24 24 24 24 25 25 25 26 28 29 29 29 28 24 21 19 18 16 14 12 10 8 8 9 10 10 11 11 12 12 12 12 12 12 13 13 12 9 8 8 8 6 5 3 3 4 5 5 6 8 11 13 15 17 18 19 19 20 21 22 22 22 22 22 22 23 24 26 28 31 34 36 38 40 42 43
30 29 29 28 28 28 27 26 25 24 24 23 23 22 22 22 23 23 23 24 24 24 21 18 18 18 17 14 10 8 7 7 8 9 9 9 9 10 11 11 11 11 11 11 13 13 12 10 9 8 7 6 6 5 4 4 3 2 3 4 7 9 11 14 16 18 20 21 21 22 23 23 23 24 24 24 24 25 26 28 31 34 36 38 40
31 31 31 30 30 29 28 27 26 25 24 24 23 22 21 20 20 20 20 20 20 19 17 16 17 17 17 15 11 6 6 6 7 7 8 8 8 10 10 11 11 11 10 10 10 11 11 11 9 7 5 4 4 4 4 3 3 2 1 1 1 2 4 5 7 10 13 17 20 22 23 24 24 25 25 25 25 25 26 27 29 31 34 37 39
30 30 31 31 31 30 29 28 27 26 25 24 23 22 21 20 19 19 19 19 18 17 16 17 18 16 15 14 10 6 6 7 6 6 6 6 7 9 10 10 11 11 11 11 10 9 9 9 8 7 6 4 4 4 4 3 3 2 1 1 2 2 2 2 2 2 4 7 11 15 19 21 23 24 25 25 25 26 27 28 28 29 31 34 36
29 29 29 29 29 30 30 30 29 27 26 25 24 23 22 21 20 19 19 18 17 16 15 17 18 17 14 11 7 5 7 7 6 5 5 5 6 8 9 10 11 11 12 12 12 10 9 8 7 6 6 5 4 4 4 3 2 2 2 1 1 2 2 2 2 1 1 1 2 4 7 11 15 18 20 21 22 23 24 25 25 25 26 28 31
30 30 29 29 28 29 29 30 30 29 28 26 25 24 23 22 20 19 19 18 16 15 15 16 17 16 13 10 5 5 7 8 6 5 5 5 6 8 9 10 11 12 13 14 13 12 11 9 7 5 5 4 4 4 4 3 3 2 1 1 0 1 1 2 2 3 3 3 3 4 4 5 7 9 11 12 13 14 14 15 15 16 17 19 22
31 30 30 30 29 28 28 29 29 30 29 27 26 24 23 21 20 18 18 16 15 14 15 16 15 14 12 8 4 5 8 8 8 6 6 6 7 8 9 10 11 12 13 14 14 14 13 11 9 7 5 4 4 4 4 4 3 2 1 1 0 1 2 2 3 3 4 5 5 6 6 6 7 8 8 9 9 10 10 10 10 11 11 12 13
32 30 30 30 29 29 28 28 29 29 30 29 27 24 22 20 19 17 16 15 13 13 14 14 13 12 10 7 4 4 8 9 9 9 8 8 9 9 10 10 11 12 13 14 15 15 14 12 9 7 5 4 4 5 5 5 4 3 2 0 1 1 1 2 2 3 4 5 6 6 7 7 8 8 8 8 8 9 9 9 9 9 10 11 11
35 31 30 29 29 29 29 29 29 29 30 30 28 25 22 20 18 16 15 14 13 12 13 13 12 10 8 6 4 4 7 9 10 11 11 10 11 11 11 12 12 13 14 15 15 14 12 10 8 6 4 3 3 3 4 4 4 4 3 2 1 1 2 2 3 4 4 5 5 6 6 6 6 7 7 7 7 7 8 8 8 8 9 10 10
43 37 33 30 29 28 28 28 28 28 29 29 29 27 23 20 17 15 15 13 12 12 13 13 11 10 8 6 4 3 5 8 10 12 13 13 13 13 13 13 14 15 15 15 14 13 10 8 7 5 3 2 2 2 3 4 4 4 4 3 3 3 3 3 3 4 4 4 5 5 5 5 6 6 6 6 7 7 7 8 9 9 10 10 11
49 44 39 34 31 29 28 27 27 27 27 28 28 27 24 20 17 15 13 13 12 13 13 13 12 11 10 8 5 4 4 6 8 11 13 14 15 15 15 15 15 15 14 13 12 9 7 6 6 5 4 2 2 2 2 3 3 3 3 3 3 3 3 3 4 4 4 4 5 6 6 6 7 7 7 7 8 8 9 9 9 10 10 11 11
51 47 43 39 35 32 29 27 27 26 25 26 27 27 25 21 17 14 12 12 12 12 14 14 13 12 11 10 8 6 5 5 6 7 9 11 12 13 14 14 13 13 11 10 8 7 6 5 5 5 3 3 2 2 2 2 3 3 3 3 3 3 4 4 4 4 5 5 5 5 5 5 5 6 6 6 6 7 7 7 8 9 9 9 10
53 49 46 42 39 35 32 29 27 26 25 24 25 26 25 22 18 15 12 11 11 12 14 15 15 14 13 12 10 9 8 7 7 6 6 6 7 8 9 9 9 8 8 7 6 6 6 6 5 4 3 3 3 2 2 2 3 3 3 3 3 4 4 4 4 4 5 5 5 5 5 5 5 5 5 5 6 6 6 7 7 8 8 9 10
55 52 48 44 40 37 34 31 29 27 25 24 23 24 24 23 20 16 14 12 11 12 13 15 16 16 15 14 12 11 10 9 9 8 7 6 6 5 6 6 6 6 6 6 6 6 6 6 6 5 4 4 4 4 4 4 5 5 5 5 4 5 5 5 5 5 5 6 6 6 6 6 6 6 6 6 7 7 7 8 8 9 10 10 11
56 54 50 46 42 38 35 33 30 28 26 24 23 23 23 23 21 18 15 14 12 12 13 14 15 16 16 16 15 14 12 11 11 10 9 9 8 8 7 6 6 7 7 7 7 7 7 7 7 7 7 7 7 7 7 7 6 6 6 6 6 6 6 6 6 6 6 6 7 7 7 7 7 7 7 7 8 8 9 9 10 11 11 11 12
57 55 52 49 45 41 36 33 31 28 26 25 23 22 22 21 20 18 17 15 14 13 13 14 15 16 16 17 16 16 16 14 13 12 12 11 11 10 9 8 8 8 9 9 9 9 9 9 9 8 8 8 8 8 8 7 7 7 7 7 7 7 7 7 7 7 8 8 8 8 8 8 8 8 9 9 10 10 10 11 11 11 12 12 12
57 56 54 51 48 44 39 35 31 29 27 25 23 22 21 21 20 18 17 16 16 15 15 14 14 15 15 16 16 17 17 17 17 16 15 14 14 13 12 11 10 10 10 10 10 9 9 9 9 8 8 8 8 8 8 8 9 9 9 9 9 9 9 9 9 9 9 9 9 9 9 10 10 10 10 10 11 11 11 11 12 12 13 13 13
58 57 55 53 50 47 43 39 34 31 28 26 24 23 22 21 20 19 18 17 17 17 17 16 16 15 15 16 16 16 17 17 18 18 17 17 16 15 14 13 12 12 11 10 10 9 9 9 9 10 10 10 10 10 10 11 11 11 11 11 11 11 11 11 11 11 11 11 11 11 11 11 11 11 12 12 12 12 13 13 13 14 14 15 16
Wind_Direction
332 331 330 329 327 324 321 317 312 307 300 292 284 275 267 263 262 263 261 256 248 240 235 234 234 233 234 234 234 234 234 235 236 237 238 240 242 244 246 247 247 247 248 249 250 251 250 248 246 244 242 240 238 236 236 235 234 232 231 231 231 232 233 234 234 234 233 232 232 232 232 232 230 229 231 234 235 238 240 241 241 241 239 239 239
334 333 332 331 329 326 323 319 315 309 303 297 290 282 271 262 257 256 255 254 252 246 239 235 235 235 236 236 236 236 237 237 238 240 243 246 247 247 248 249 249 248 249 248 247 248 250 249 247 245 243 242 239 238 236 235 235 234 232 230 229 229 230 231 232 232 231 231 231 230 230 230 229 227 227 230 232 234 236 238 239 241 242 240 237
335 334 333 333 331 329 327 323 319 313 306 298 291 284 276 268 260 254 249 247 248 248 245 238 235 236 238 239 240 241 241 241 242 244 247 249 251 251 251 252 253 253 252 249 245 244 246 247 247 245 244 243 241 239 237 236 235 235 233 232 230 229 229 229 230 230 229 229 229 229 228 228 228 226 224 227 231 232 233 235 234 235 238 239 237
337 337 337 337 336 334 331 329 325 319 311 302 293 285 277 270 263 256 249 244 242 244 246 244 239 237 238 240 242 244 246 246 246 248 249 250 251 253 255 256 256 255 253 250 245 241 241 243 244 243 242 242 241 240 238 237 236 235 234 233 231 230 229 228 228 228 227 227 227 227 227 227 226 225 223 224 228 231 232 233 233 233 234 237 237
343 344 344 343 342 339 337 335 333 330 323 314 302 291 281 271 263 256 249 243 239 239 242 244 243 240 239 239 240 243 246 248 249 249 249 250 250 253 256 257 256 255 253 249 243 238 238 240 240 239 239 240 240 240 239 238 237 236 235 234 233 231 230 229 228 227 226 226 225 225 225 225 225 225 223 223 225 229 231 232 233 233 233 234 236
350 351 350 349 347 346 344 342 341 339 335 328 315 300 288 275 262 254 248 243 238 235 237 241 243 244 244 242 241 243 245 247 247 246 246 248 249 252 255 256 255 254 253 248 242 237 237 237 237 236 237 238 239 239 239 238 237 236 234 234 233 232 230 229 229 228 227 226 225 224 224 223 224 224 224 223 223 226 230 232 232 233 233 233 234
355 356 355 354 353 353 351 348 347 348 347 344 336 317 299 282 262 249 243 242 237 233 235 239 241 243 246 246 245 244 245 245 243 241 243 246 249 252 254 254 253 254 253 250 244 240 238 237 236 235 236 237 237 237 238 238 237 235 234 233 233 232 231 230 229 229 228 227 226 225 224 223 223 223 223 223 222 223 226 230 230 231 232 233 233
359 359 359 360 0 360 358 355 356 360 2 2 2 356 338 305 266 243 236 236 234 232 234 237 239 240 243 246 246 244 243 242 240 239 243 247 250 252 253 253 254 255 254 252 248 244 241 238 237 236 236 236 235 236 237 238 238 236 234 233 233 232 231 230 229 229 229 228 228 227 225 224 223 223 223 223 222 221 223 226 228 229 230 231 231
2 2 3 5 6 7 6 4 5 11 15 16 19 22 24 27 36 217 222 226 228 229 232 234 236 238 241 244 246 244 242 240 239 241 246 250 251 251 252 253 254 255 254 252 249 246 243 240 238 237 236 235 235 235 237 238 238 237 235 234 234 233 232 231 230 229 229 229 229 228 227 226 224 223 223 224 223 222 222 224 226 228 228 228 228
4 5 7 9 10 13 14 13 13 18 23 26 30 34 39 46 62 101 176 208 219 222 224 228 232 235 239 243 244 242 240 240 241 245 248 250 250 251 253 253 253 254 254 252 249 246 243 240 239 238 237 236 236 237 238 239 239 238 237 237 236 235 233 232 232 231 230 229 229 229 229 228 226 225 224 224 224 224 223 223 225 227 228 228 228
5 8 11 11 12 16 20 21 20 22 27 32 36 40 46 52 61 74 98 143 186 203 211 219 226 232 237 241 242 241 240 241 243 245 245 246 248 251 253 253 253 252 251 250 247 245 242 240 238 238 239 239 239 239 239 239 239 238 238 238 238 237 235 234 233 232 231 231 230 230 230 230 228 227 225 224 224 225 224 224 225 226 228 229 230
9 13 15 14 15 18 22 25 25 25 28 34 39 42 47 52 59 69 84 109 149 182 201 214 223 231 236 239 241 240 240 240 241 242 242 244 247 251 254 255 254 252 249 247 245 243 241 239 238 238 240 241 241 240 240 239 238 237 238 239 239 239 237 236 234 233 233 232 231 230 230 230 230 229 228 226 225 226 225 225 225 226 228 230 231
18 20 20 19 19 21 23 26 28 29 30 33 38 42 45 49 53 58 66 80 111 169 205 220 229 235 238 240 241 241 241 241 242 243 244 246 249 252 255 255 254 252 249 246 244 242 240 239 238 239 240 241 241 240 239 237 236 236 237 238 239 240 239 238 236 235 233 233 232 231 231 230 231 231 230 229 228 227 227 227 227 227 228 230 231
28 28 29 29 29 28 29 31 32 33 33 34 35 37 39 42 43 44 45 44 39 356 271 256 253 252 250 248 247 245 245 245 245 246 247 248 250 252 253 253 252 251 250 247 245 243 240 239 238 238 237 237 238 238 236 235 234 234 236 237 238 239 239 239 238 237 236 234 233 232 231 230 230 231 231 231 230 229 229 229 229 229 229 230 231
36 37 38 38 39 39 39 40 40 40 40 39 38 38 38 38 37 34 31 27 19 3 334 300 281 270 263 259 256 252 250 249 249 250 251 252 252 251 251 250 249 249 249 248 245 243 239 237 236 236 235 234 235 235 235 234 233 233 234 236 237 237 238 238 238 238 238 237 235 233 231 230 230 230 231 231 231 231 231 230 230 230 230 231 231
37 38 39 40 40 40 41 41 42 42 42 42 42 41 41 40 39 36 33 28 23 14 1 341 314 293 278 270 265 261 257 254 252 252 252 253 253 253 251 249 248 248 247 246 245 243 239 236 235 235 235 234 234 234 234 233 232 232 233 234 235 235 236 237 239 239 239 239 238 236 234 232 231 230 230 231 231 231 231 231 231 232 232 232 232
35 36 37 37 36 36 36 37 38 38 39 39 40 41 41 41 40 38 37 34 31 26 19 10 356 336 313 294 282 274 268 262 258 254 252 251 251 251 251 252 251 250 248 245 243 242 239 237 236 235 235 234 234 233 233 232 231 231 231 232 234 234 234 236 238 240 241 241 241 240 238 236 234 232 231 231 231 231 232 232 232 233 233 233 234
33 33 33 33 32 32 32 33 34 35 35 36 37 38 38 38 38 37 36 33 31 27 23 19 13 6 354 337 319 302 287 278 271 264 260 257 254 253 253 253 253 252 250 247 244 241 239 237 236 235 235 234 233 233 232 231 230 229 230 231 232 233 235 236 237 239 241 241 241 241 240 238 236 234 233 232 232 232 232 232 232 233 233 234 234
29 29 29 29 28 28 29 30 31 32 33 34 34 35 35 36 35 34 34 33 30 24 19 14 9 6 4 359 352 345 334 320 304 290 280 272 267 263 260 258 256 255 252 250 247 244 241 239 237 236 235 235 234 233 233 232 231 231 230 231 231 233 236 237 238 239 240 241 241 240 240 239 238 236 234 233 233 233 233 233 233 232 233 233 234
24 25 26 27 27 27 27 28 29 30 30 30 30 30 32 33 32 30 31 32 28 23 18 13 6 359 356 355 355 355 358 0 1 353 338 319 299 283 274 269 266 262 259 255 251 249 246 244 242 240 238 237 236 236 235 234 234 233 233 233 232 234 236 238 238 238 239 240 240 240 239 238 238 237 235 234 233 232 233 233 233 233 233 233 233
21 23 24 26 26 27 27 28 28 28 28 26 26 26 28 29 30 28 28 29 25 19 16 13 9 1 354 351 350 350 351 356 0 4 5 1 354 342 317 296 282 273 268 263 258 256 254 252 250 248 245 242 241 240 239 238 236 235 234 234 233 233 235 236 237 237 238 239 241 241 240 238 238 238 236 234 233 233 232 233 233 234 234 234 233
17 19 21 22 24 25 27 27 27 27 26 24 24 25 26 27 28 27 26 26 23 17 14 14 12 7 359 354 355 357 355 351 350 349 348 346 343 342 343 337 320 300 287 276 270 266 262 260 258 256 253 250 247 245 243 241 240 237 235 234 234 233 234 235 236 238 238 239 241 242 242 240 238 237 237 235 233 232 231 231 232 233 234 234 234
14 15 16 18 20 24 28 29 28 27 26 26 26 26 25 26 27 26 24 23 19 15 13 13 11 9 6 2 4 9 10 3 356 349 342 339 335 330 325 319 311 303 295 290 286 281 275 270 265 262 260 258 255 251 248 245 242 239 236 235 234 234 234 234 237 239 239 240 241 243 244 243 240 238 237 236 234 232 230 229 230 232 233 233 233
12 12 13 15 18 22 25 25 25 24 24 24 24 24 24 23 23 23 21 19 16 14 13 13 11 9 9 11 12 15 17 14 9 2 349 335 326 319 314 309 302 296 290 286 284 282 280 276 273 269 267 264 262 258 253 249 246 242 239 237 236 236 236 236 237 239 241 242 242 243 245 244 242 240 237 235 235 235 232 229 228 230 231 231 232
7 8 10 13 16 20 21 20 18 18 19 19 19 18 18 18 18 18 17 15 13 11 11 12 12 10 10 15 18 17 17 14 5 355 343 332 325 320 316 311 305 297 289 284 280 278 277 275 273 270 268 267 267 265 259 254 249 245 242 240 240 240 240 240 241 241 242 243 243 243 243 244 243 241 238 236 234 234 234 232 229 228 228 228 229
360 1 4 8 11 14 16 17 15 13 13 15 16 14 12 11 11 11 10 10 10 8 7 7 9 9 10 13 14 11 5 358 351 346 341 337 335 330 325 320 314 304 294 286 283 283 283 281 277 269 264 264 267 266 262 255 250 246 243 242 243 244 245 245 246 246 245 245 244 242 241 242 242 241 240 238 235 234 234 233 231 228 227 227 227
350 352 354 358 1 3 5 7 9 8 7 8 10 10 8 7 6 5 4 3 3 4 2 1 1 3 4 6 7 6 1 357 357 356 353 348 345 341 336 331 324 313 300 288 283 283 286 288 285 275 265 262 266 268 264 256 249 245 243 241 241 242 243 243 244 245 245 244 243 243 241 239 240 240 240 239 237 236 235 234 232 230 229 229 230
338 340 342 345 347 349 351 353 354 357 359 358 359 0 360 359 359 359 359 358 357 357 357 355 354 355 355 356 358 1 1 2 4 3 356 350 350 350 349 346 340 330 317 300 285 278 278 283 287 284 274 267 269 271 266 256 248 244 241 240 238 236 237 239 240 242 244 244 244 243 242 240 238 239 239 239 238 237 236 236 235 234 233 233 233
327 327 328 331 333 334 336 337 338 339 342 344 346 348 349 349 349 348 349 350 351 351 351 350 349 348 347 347 348 351 354 357 359 358 354 350 350 351 351 349 346 341 334 322 304 285 274 272 277 282 281 277 275 274 267 255 245 240 238 236 234 234 237 241 243 245 246 247 246 245 243 241 239 237 237 238 238 238 237 237 236 237 237 237 236
329 323 319 318 319 321 324 325 326 327 327 329 332 335 336 338 339 339 339 340 342 345 345 344 343 342 342 341 340 341 344 346 347 348 348 346 345 348 349 347 345 343 340 334 324 304 282 271 270 273 274 274 274 276 269 255 241 234 231 231 231 234 238 242 246 247 248 249 250 250 248 245 242 239 236 236 236 237 237 236 236 236 237 237 238
336 332 325 318 314 312 313 314 316 317 318 319 320 322 324 326 329 331 332 332 334 338 339 338 336 336 337 336 335 334 335 335 336 339 341 340 341 346 349 349 349 349 346 344 342 333 305 278 271 272 271 266 261 260 260 253 240 229 227 228 232 237 241 245 247 249 249 248 249 251 253 252 248 243 239 236 235 235 236 236 236 236 237 237 238
335 335 333 328 322 317 312 309 308 308 309 311 313 314 317 319 321 323 325 326 328 332 334 333 332 332 332 332 331 329 327 326 329 333 335 337 341 345 349 351 355 359 1 360 0 3 0 329 291 281 276 267 258 253 250 247 241 234 230 231 233 236 239 242 244 246 247 247 247 248 249 251 250 246 242 239 237 237 237 237 236 236 237 238 238
334 333 332 331 329 326 322 317 312 309 307 306 307 309 311 313 315 318 320 322 325 329 331 330 330 330 329 328 328 325 320 317 322 328 332 337 343 347 349 352 357 2 7 10 11 15 20 15 347 318 302 286 270 258 250 245 240 236 235 235 236 237 238 239 241 243 244 245 246 246 246 246 246 244 241 240 239 239 240 240 239 238 237 238 238
339 336 334 332 331 329 327 325 321 318 314 311 310 309 310 311 313 315 318 321 323 326 329 331 331 329 327 326 325 320 311 306 312 321 330 338 347 351 351 353 356 360 5 13 17 19 19 16 10 8 7 1 344 313 289 274 261 252 247 242 241 241 242 243 243 244 244 243 243 244 245 245 243 239 236 235 236 237 238 239 239 239 239 238 239
340 340 338 336 334 332 331 329 326 324 321 320 318 318 317 317 316 317 318 319 320 323 328 332 331 327 324 323 322 312 296 291 301 315 326 339 350 355 354 355 357 358 0 8 17 22 24 23 24 29 35 36 35 30 21 9 351 317 283 262 249 244 243 244 244 243 243 241 240 239 239 240 239 236 234 233 233 233 234 235 236 236 236 236 237
339 340 340 339 338 335 333 331 329 327 326 324 323 323 322 321 320 321 321 320 321 325 330 331 329 324 320 318 315 298 272 272 285 305 321 337 349 353 356 360 1 360 359 360 5 14 23 27 31 33 32 27 25 26 26 28 25 16 360 334 288 258 247 245 242 240 238 238 237 236 235 234 234 233 233 233 233 233 234 236 237 236 234 233 233
336 338 339 340 340 338 336 333 330 328 326 326 326 325 324 322 322 322 323 323 325 330 333 332 331 328 322 316 308 280 249 249 267 292 308 326 343 348 353 2 5 3 3 4 2 3 10 19 27 29 22 7 358 359 2 8 15 12 349 311 287 277 275 271 262 245 232 230 232 233 232 231 231 230 231 232 233 235 237 239 239 238 235 233 232
330 332 334 337 339 339 339 337 334 330 327 325 325 326 326 325 325 324 323 324 326 330 334 335 335 335 333 325 306 258 231 235 253 276 289 306 328 337 344 355 1 1 3 7 7 5 5 7 11 13 10 1 352 349 352 359 9 17 18 357 284 255 258 260 254 244 212 149 168 200 215 220 222 223 225 228 231 233 236 237 236 234 232 231 230
325 325 327 330 333 336 338 338 338 336 331 327 324 325 327 328 327 325 323 323 324 329 334 338 338 338 338 333 309 237 222 233 249 261 271 288 306 321 330 340 348 352 356 360 3 4 4 3 0 355 349 345 341 339 337 339 342 346 360 20 83 158 177 189 190 186 184 175 158 148 150 162 178 191 199 204 209 211 213 214 214 216 219 222 225
327 323 322 323 326 329 332 335 337 337 336 332 327 324 325 327 326 325 322 319 320 327 333 337 339 340 339 337 313 228 221 234 247 254 262 276 288 301 313 322 330 337 343 348 352 353 355 356 356 350 336 323 316 316 317 321 324 327 339 360 104 126 130 143 157 164 170 175 179 178 174 170 172 177 183 187 190 191 192 193 196 199 203 207 211
334 326 322 321 321 322 325 329 333 336 338 336 331 326 325 326 325 323 319 315 317 325 331 334 336 338 338 336 315 245 232 239 249 256 261 269 277 286 296 305 313 321 327 332 338 342 345 347 348 346 336 316 300 295 297 299 297 294 296 293 155 146 137 139 148 152 154 159 166 171 171 171 174 178 181 183 186 190 192 194 196 198 199 200 201
347 339 330 325 322 321 321 324 327 331 335 337 335 330 326 324 324 321 317 313 314 320 325 328 330 331 330 330 316 270 250 249 254 258 262 267 273 280 287 293 301 308 314 319 325 330 335 339 341 340 332 310 289 279 279 281 280 274 264 240 199 178 172 172 171 164 157 154 156 158 157 156 159 164 168 171 175 179 183 188 191 193 195 197 198
355 350 344 336 329 325 322 322 323 325 329 334 335 333 327 324 322 319 314 308 308 314 319 322 324 323 320 318 311 282 264 259 258 259 262 265 270 275 281 286 293 299 305 311 317 322 328 333 335 337 335 317 289 263 252 253 257 258 253 241 224 209 195 187 184 177 168 164 164 165 166 167 168 172 176 179 181 184 186 189 191 193 194 195 197
357 354 350 345 339 333 328 324 323 322 324 329 333 334 329 322 319 316 308 301 302 310 314 316 319 319 314 308 302 289 272 263 261 262 262 263 266 271 276 282 288 294 299 305 310 317 325 329 327 327 326 322 304 272 241 227 221 220 221 220 217 212 206 201 196 188 184 185 188 189 189 189 188 190 192 193 195 196 197 197 197 197 197 199 201
358 355 351 348 344 339 335 330 327 324 323 324 329 332 330 323 316 312 304 296 297 307 313 313 313 313 309 302 298 292 282 271 265 264 265 266 267 269 272 277 282 286 292 298 304 310 314 314 314 312 310 308 296 270 238 218 207 198 192 190 194 196 197 199 201 200 198 198 198 198 198 197 196 196 198 200 203 206 207 207 207 207 208 208 210
0 358 354 350 345 342 338 334 331 327 324 322 324 329 331 325 316 308 300 292 294 305 313 313 312 310 305 299 295 292 289 284 277 270 266 266 268 269 271 274 277 282 286 290 294 297 296 295 294 293 289 285 275 261 247 239 232 223 217 214 211 209 207 206 208 211 212 213 214 214 213 213 213 212 214 217 220 222 224 223 222 223 223 223 224
1 360 358 354 348 344 340 337 333 330 326 323 322 325 329 327 318 306 295 289 292 302 311 314 313 310 305 299 293 289 286 285 282 279 275 270 267 267 268 270 274 278 280 280 280 280 280 278 276 274 273 272 269 266 263 260 256 252 250 245 236 229 225 224 224 225 226 226 228 230 231 231 231 230 230 232 234 236 237 237 236 235 234 232 231
1 0 360 358 353 348 342 339 336 332 328 324 320 320 323 326 321 309 294 286 288 296 305 311 313 311 307 301 294 288 282 277 275 275 275 273 270 267 264 265 269 272 270 269 267 264 262 261 262 263 265 266 266 266 265 261 257 252 249 246 241 236 235 235 235 236 236 237 238 241 243 245 246 246 247 247 246 245 244 242 240 239 237 234 232
1 0 0 359 357 353 347 341 337 333 330 325 319 315 315 319 319 311 297 286 283 290 298 305 309 310 309 305 299 292 285 278 272 267 264 264 264 262 260 259 262 265 267 267 266 264 262 261 261 262 262 262 263 262 260 258 255 251 250 249 247 246 246 245 245 245 246 247 249 250 251 252 252 251 250 249 248 247 245 243 240 238 236 234 233
1 0 360 360 359 357 353 346 340 335 331 327 321 314 310 311 313 310 301 289 283 284 291 297 301 305 307 307 304 299 293 286 280 274 268 263 259 257 255 253 253 255 257 258 259 259 260 261 261 261 260 260 260 260 259 258 258 257 258 256 255 254 254 252 252 252 252 253 252 253 253 253 253 252 251 250 248 247 245 243 241 240 239 238 238
0 0 0 360 359 358 357 353 346 339 334 330 327 320 312 306 304 304 300 292 284 282 284 289 294 297 299 300 302 301 298 293 287 282 276 271 266 261 257 254 253 252 252 252 252 253 255 256 258 260 262 262 262 262 262 261 261 260 259 258 257 255 254 253 253 254 254 254 255 255 255 255 255 254 253 251 249 247 246 245 244 243 243 243 243